sat.trackr.live / text

‹ back to catalog

STARLINK-3715

NORAD 52127 · 2022-029AR

PAYLOAD ACTIVE UNKNOWN

§ Identity

Operator
Country
US
Launch date
2022-03-19
Launch site
AFETR
Launch vehicle
Mass (kg)
RCS (m²)

Purposes: comms

External: N2YO · Heavens-Above · Gunter

§ Orbital elements

Epoch: 2026-05-25T03:03:10.751328Z

Period
95.44 min
Inclination
53.2136°
Eccentricity
0.0001555
Mean motion
15.08837603 rev/d
Perigee alt
538.7 km
Apogee alt
540.8 km
Semi-major
6,917.9 km
B*
7.8359e-6
RAAN
85.9790°
Arg perigee
88.4255°
Mean anomaly
271.6915°
Rev number
23,246

§ Raw data

STARLINK-37151 52127U 22029AR  26145.12720777 -.00000163  00000+0  78359-5 0  99902 52127  53.2136  85.9790 0001555  88.4255 271.6915 15.08837603232464

JSON: /api/v1/satellites/52127 · /tle

For live sub-satellite position, see the globe view (requires WebGL).

§ Visibility from observer

Set your observer location to see the next 7 days of passes ≥ 10°. The values pass through the URL so the page stays shareable.

No JS? Fill the form by hand. The geolocation button needs JavaScript.